Location: Newark
(44.5208°N, 2.4294°E)
Time: 03:13:36
(UTC+00:00)

N. Korean satellite - Pass Details

Date: 26 October 2019
Orbit: 456 x 506 km, 97.2° (Epoch: 20 November)

Event Time Altitude Azimuth Distance (km) Brightness Sun altitude
Rises 05:22:12 0° 19° (NNE) 2,581 10.4 -10.8°
Reaches altitude 10° 05:24:21 10° 27° (NNE) 1,701 9.6 -10.4°
Maximum altitude 05:27:51 41° 98° (E) 742 8.2 -9.8°
Drops below altitude 10° 05:31:20 10° 170° (S) 1,707 9.6 -9.2°
Sets 05:33:30 0° 177° (S) 2,590 10.4 -8.8°
